• In Portugal
  • List of Countries
  • For 7 days
  • Water Temperature
  • Satellite Maps
  • Weather Map
  • Weather Widgets
  • user-avatar
    Login

    Hourly Weather Korçe

    Today, 24 February, Saturday

    Time Temperature Precipitation Wind Pressure Humidity
    00:00 +2°C° 0 mm 3 mps 658 mmHg 87%
    01:00 +2°C° 0 mm 3 mps 658 mmHg 87%
    02:00 +2°C° 0.2 mm 3 mps 658 mmHg 88%
    03:00 +2°C° 0.2 mm 3 mps 657 mmHg 88%
    04:00 +2°C° 0.2 mm 3 mps 657 mmHg 89%
    05:00 +1°C° 0.9 mm 3 mps 658 mmHg 90%
    06:00 +2°C° 0.9 mm 2 mps 658 mmHg 91%
    07:00 +1°C° 0 mm 3 mps 658 mmHg 91%
    08:00 +3°C° 0.7 mm 2 mps 658 mmHg 89%
    09:00 +3°C° 0.7 mm 2 mps 658 mmHg 86%
    10:00 +4°C° 0.7 mm 2 mps 659 mmHg 84%
    11:00 +5°C° 0.2 mm 2 mps 659 mmHg 81%
    12:00 +5°C° 0.2 mm 2 mps 659 mmHg 78%
    13:00 +6°C° 0.2 mm 2 mps 659 mmHg 75%
    14:00 +6°C° 0.2 mm 2 mps 659 mmHg 76%
    15:00 +5°C° 0.2 mm 2 mps 659 mmHg 77%
    16:00 +6°C° 0.2 mm 1 mps 659 mmHg 79%
    17:00 +5°C° 0.2 mm 1 mps 659 mmHg 82%
    18:00 +5°C° 0.2 mm 1 mps 659 mmHg 86%
    19:00 +4°C° 0.2 mm 1 mps 659 mmHg 90%
    20:00 +4°C° 0.1 mm 1 mps 659 mmHg 90%
    21:00 +3°C° 0.1 mm 1 mps 659 mmHg 91%
    22:00 +3°C° 0.1 mm 1 mps 659 mmHg 92%
    23:00 +3°C° 0 mm 1 mps 659 mmHg 92%

    Tomorrow, 25 February, Sunday

    Time Temperature Precipitation Wind Pressure Humidity
    00:00 +3°C° 0 mm 1 mps 659 mmHg 92%
    01:00 +2°C° 0 mm 2 mps 660 mmHg 92%
    02:00 +2°C° 0.1 mm 2 mps 659 mmHg 92%
    03:00 +2°C° 0.1 mm 2 mps 659 mmHg 92%
    04:00 +2°C° 0.1 mm 2 mps 659 mmHg 92%
    05:00 +1°C° 0.4 mm 2 mps 659 mmHg 92%
    06:00 +1°C° 0.4 mm 2 mps 659 mmHg 92%
    07:00 +1°C° 0.4 mm 2 mps 660 mmHg 91%
    08:00 +2°C° 0.7 mm 2 mps 660 mmHg 90%
    09:00 +2°C° 0.7 mm 3 mps 660 mmHg 88%
    10:00 +2°C° 0.7 mm 3 mps 660 mmHg 86%
    11:00 +2°C° 0.4 mm 3 mps 660 mmHg 84%
    12:00 +4°C° 0.4 mm 2 mps 660 mmHg 83%
    13:00 +4°C° 0.4 mm 2 mps 660 mmHg 82%
    14:00 +3°C° 1.2 mm 2 mps 659 mmHg 85%
    15:00 +3°C° 1.2 mm 2 mps 658 mmHg 88%
    16:00 +2°C° 1.2 mm 2 mps 658 mmHg 91%
    17:00 +2°C° 1.8 mm 2 mps 658 mmHg 91%
    18:00 +1°C° 1.8 mm 2 mps 657 mmHg 92%
    19:00 0°C° 1.8 mm 3 mps 657 mmHg 92%
    20:00 0°C° 2.6 mm 3 mps 656 mmHg 92%
    21:00 -1°C° 2.6 mm 3 mps 656 mmHg 92%
    22:00 -2°C° 2.6 mm 4 mps 655 mmHg 92%
    23:00 -1°C° 3.7 mm 3 mps 655 mmHg 93%

    Day after tomorrow, 26 February, Monday

    Time Temperature Precipitation Wind Pressure Humidity
    00:00 -2°C° 3.7 mm 3 mps 654 mmHg 93%
    01:00 -2°C° 3.7 mm 3 mps 653 mmHg 94%
    02:00 -2°C° 2.8 mm 3 mps 653 mmHg 94%
    03:00 -4°C° 2.8 mm 3 mps 653 mmHg 94%
    04:00 -4°C° 2.8 mm 3 mps 652 mmHg 93%
    05:00 -3°C° 0.7 mm 2 mps 652 mmHg 93%
    06:00 -3°C° 0.7 mm 2 mps 652 mmHg 93%
    07:00 -4°C° 0.7 mm 2 mps 652 mmHg 93%
    08:00 -3°C° 0.7 mm 2 mps 652 mmHg 93%
    09:00 -3°C° 0.7 mm 2 mps 653 mmHg 93%
    10:00 -3°C° 0.7 mm 2 mps 653 mmHg 93%
    11:00 0°C° 0.2 mm 1 mps 653 mmHg 92%
    12:00 +1°C° 0.2 mm 1 mps 653 mmHg 91%
    13:00 +1°C° 0.2 mm 1 mps 654 mmHg 91%
    14:00 +2°C° 0 mm 1 mps 654 mmHg 90%
    15:00 +2°C° 0 mm 1 mps 654 mmHg 90%
    16:00 +2°C° 0 mm 1 mps 654 mmHg 89%
    17:00 +2°C° 0.2 mm 1 mps 654 mmHg 90%
    18:00 -1°C° 0.2 mm 2 mps 654 mmHg 91%
    19:00 -1°C° 0.2 mm 2 mps 654 mmHg 92%
    20:00 -2°C° 0.5 mm 2 mps 654 mmHg 93%
    21:00 -2°C° 0.5 mm 2 mps 654 mmHg 94%
    22:00 -2°C° 0.5 mm 2 mps 655 mmHg 94%
    23:00 -2°C° 0.3 mm 3 mps 655 mmHg 94%

    27 February, Tuesday

    Time Temperature Precipitation Wind Pressure Humidity
    00:00 -2°C° 0.3 mm 3 mps 655 mmHg 93%
    01:00 -2°C° 0.3 mm 3 mps 655 mmHg 93%
    02:00 -2°C° 0.3 mm 3 mps 655 mmHg 92%
    03:00 -4°C° 0.3 mm 3 mps 655 mmHg 92%
    04:00 -4°C° 0.3 mm 3 mps 655 mmHg 91%
    05:00 -4°C° 0.1 mm 3 mps 655 mmHg 91%
    06:00 -4°C° 0.1 mm 3 mps 656 mmHg 90%
    07:00 -5°C° 0.1 mm 3 mps 656 mmHg 89%
    08:00 -4°C° 0.1 mm 3 mps 656 mmHg 87%
    09:00 -2°C° 0.1 mm 3 mps 657 mmHg 85%
    10:00 -1°C° 0.1 mm 3 mps 657 mmHg 84%
    11:00 -1°C° 0.2 mm 3 mps 657 mmHg 85%
    12:00 -1°C° 0.2 mm 3 mps 657 mmHg 86%
    13:00 0°C° 0.2 mm 3 mps 657 mmHg 88%
    14:00 -1°C° 0.3 mm 3 mps 657 mmHg 89%
    15:00 -1°C° 0.3 mm 2 mps 657 mmHg 91%
    16:00 -1°C° 0.3 mm 2 mps 657 mmHg 93%
    17:00 -1°C° 0.3 mm 2 mps 658 mmHg 94%
    18:00 +1°C° 0.3 mm 1 mps 658 mmHg 94%
    19:00 0°C° 0.3 mm 1 mps 658 mmHg 94%
    20:00 0°C° 0.2 mm 1 mps 658 mmHg 94%
    21:00 0°C° 0.2 mm 1 mps 658 mmHg 94%
    22:00 0°C° 0.2 mm 1 mps 659 mmHg 94%
    23:00 0°C° 0.1 mm 1 mps 658 mmHg 94%

    28 February, Wednesday

    Time Temperature Precipitation Wind Pressure Humidity
    00:00 0°C° 0.1 mm 1 mps 658 mmHg 93%
    01:00 0°C° 0.1 mm 1 mps 658 mmHg 93%
    02:00 -3°C° 0 mm 2 mps 658 mmHg 92%
    03:00 -3°C° 0 mm 2 mps 658 mmHg 92%
    04:00 -4°C° 0 mm 2 mps 658 mmHg 91%
    05:00 -4°C° 0 mm 2 mps 659 mmHg 90%
    06:00 -5°C° 0 mm 2 mps 659 mmHg 90%
    07:00 -5°C° 0 mm 2 mps 659 mmHg 89%
    08:00 -4°C° 0 mm 2 mps 660 mmHg 84%
    09:00 -2°C° 0 mm 2 mps 661 mmHg 79%
    10:00 -1°C° 0 mm 2 mps 662 mmHg 74%
    11:00 -1°C° 0 mm 3 mps 662 mmHg 73%
    12:00 0°C° 0 mm 3 mps 662 mmHg 72%
    13:00 0°C° 0 mm 3 mps 663 mmHg 71%
    14:00 0°C° 0 mm 3 mps 663 mmHg 71%
    15:00 0°C° 0 mm 3 mps 663 mmHg 71%
    16:00 -1°C° 0 mm 2 mps 664 mmHg 71%
    17:00 -2°C° 0 mm 2 mps 664 mmHg 74%
    18:00 -4°C° 0 mm 2 mps 664 mmHg 76%
    19:00 -4°C° 0 mm 1 mps 664 mmHg 79%
    20:00 -4°C° 0 mm 1 mps 664 mmHg 77%
    21:00 -4°C° 0 mm 1 mps 665 mmHg 75%
    22:00 -4°C° 0 mm 1 mps 665 mmHg 73%
    23:00 -4°C° 0 mm 1 mps 665 mmHg 70%

    1 March, Thursday

    Time Temperature Precipitation Wind Pressure Humidity
    00:00 -4°C° 0 mm 1 mps 665 mmHg 68%
    01:00 -4°C° 0 mm 1 mps 665 mmHg 65%
    02:00 -3°C° 0 mm 1 mps 666 mmHg 64%
    03:00 -3°C° 0 mm 1 mps 666 mmHg 62%
    04:00 -3°C° 0 mm 1 mps 666 mmHg 61%
    05:00 -2°C° 0 mm 1 mps 666 mmHg 62%
    06:00 -2°C° 0 mm 1 mps 666 mmHg 64%
    07:00 -1°C° 0 mm 1 mps 666 mmHg 65%
    08:00 -1°C° 0 mm 2 mps 667 mmHg 68%
    09:00 +1°C° 0 mm 2 mps 667 mmHg 70%
    10:00 +3°C° 0 mm 2 mps 668 mmHg 72%
    11:00 +4°C° 0 mm 2 mps 667 mmHg 73%
    12:00 +4°C° 0 mm 2 mps 667 mmHg 74%
    13:00 +5°C° 0 mm 2 mps 667 mmHg 75%
    14:00 +5°C° 0 mm 2 mps 667 mmHg 77%
    15:00 +5°C° 0 mm 2 mps 666 mmHg 79%
    16:00 +4°C° 0 mm 2 mps 666 mmHg 80%
    17:00 +3°C° 0 mm 2 mps 666 mmHg 82%
    18:00 +2°C° 0 mm 2 mps 666 mmHg 83%
    19:00 +1°C° 0 mm 3 mps 665 mmHg 84%
    20:00 0°C° 0 mm 3 mps 665 mmHg 83%
    21:00 0°C° 0 mm 3 mps 665 mmHg 82%
    22:00 0°C° 0 mm 3 mps 665 mmHg 81%
    23:00 0°C° 0 mm 3 mps 664 mmHg 79%
    Show more